User: anonymous   Login
Location: Newark
(43.2700°N, 11.0700°E)
Time: 19:01:44
(UTC+00:00)
Language:

UNISAT 6 - Orbit

View from above orbital plane
View from above orbital plane
View from above satellite
View from above satellite

Ground track
Ground track

The orbit data is extracted from the following two-line orbital elements,

1 40012U 14033C   21294.46250705  .00000396  00000-0  65466-4 0  9994
2 40012  97.6673 130.2221 0057188 211.5881 148.1892 14.74405835394766
Epoch (UTC): 21 October 2021 11:06:00
Eccentricity: 0.0057188
inclination: 97.6673°
perigee height: 607 km
apogee height: 687 km
right ascension of ascending node: 130.2221°
argument of perigee: 211.5881°
revolutions per day: 14.74405835
mean anomaly at epoch: 148.1892°
orbit number at epoch: 39476

The dashed part of the orbit path shows where the satellite is in the earth's shadow,  

DLR